Temperature
22 22 22 21 18 17 18 19 19 19 20 20 20 19 18 18 18 17 17 17 17 17 17 17 17 17 17 17 18 18 17 17 17 17 17 17 17 17 17 17 18 18 18 17 17 17 17 17 17
22 22 22 21 17 17 18 19 19 20 20 20 20 19 18 17 17 17 17 17 17 17 17 17 17 17 17 17 17 17 17 17 17 17 17 17 17 17 17 17 17 17 17 17 17 17 17 17 17
22 22 21 17 18 17 19 19 19 20 21 20 19 19 18 17 17 17 17 17 17 17 17 17 17 17 17 17 17 17 17 17 17 17 17 17 17 17 17 17 17 17 17 17 17 17 17 17 17
22 22 21 18 18 19 19 19 20 20 20 20 19 18 18 18 18 18 17 17 17 17 17 17 17 17 17 17 17 17 17 17 17 17 17 17 17 17 17 17 17 17 17 17 17 17 17 17 17
22 21 18 18 19 19 19 20 21 20 20 19 19 17 17 18 18 18 17 17 18 17 17 17 17 17 17 17 17 17 17 17 17 17 16 16 16 16 17 17 17 17 17 17 17 17 16 16 16
22 19 17 18 19 19 20 21 20 20 19 19 18 17 17 18 18 18 18 18 18 17 17 17 17 17 17 17 17 17 17 16 16 16 16 16 16 16 16 16 16 17 16 16 16 16 16 16 16
21 17 18 18 18 19 20 21 20 19 19 19 19 17 17 17 18 17 17 17 17 17 17 17 17 17 17 17 17 16 16 16 16 16 16 16 16 16 16 16 16 16 16 16 16 16 16 16 16
22 18 18 18 19 19 20 21 21 20 20 19 19 17 17 18 17 17 17 17 17 17 17 17 17 17 17 17 16 16 16 16 16 16 16 16 16 16 16 16 16 16 16 16 16 16 16 16 16
22 17 18 19 19 19 20 20 20 21 20 19 19 19 18 18 17 17 17 17 17 17 17 17 17 17 17 16 16 16 16 16 16 16 16 16 16 16 16 16 16 16 16 16 16 16 16 16 16
21 18 19 20 19 19 20 20 20 20 19 19 19 18 18 18 18 18 17 17 17 17 17 17 17 17 16 16 16 16 16 16 16 16 16 16 16 16 16 16 15 15 15 15 15 15 15 15 15
20 19 20 20 21 21 20 20 20 19 18 18 18 18 18 18 18 18 17 17 17 17 17 16 16 16 16 16 16 16 16 16 16 16 16 16 16 16 16 16 15 15 15 15 15 15 15 15 15
20 20 21 21 21 21 20 20 20 20 19 20 19 19 18 18 18 18 17 17 17 17 17 16 16 16 16 16 16 16 16 16 16 16 16 16 16 15 15 15 15 15 15 15 15 15 15 15 15
20 20 21 21 21 21 21 20 20 19 20 19 19 19 18 18 18 18 18 17 17 17 17 17 16 16 16 16 16 16 16 16 16 16 15 15 15 15 15 15 15 15 15 15 15 15 15 15 15
21 21 21 21 21 21 20 19 19 19 19 19 19 18 18 18 18 18 17 17 17 17 17 16 16 16 16 16 16 16 16 16 15 15 15 15 15 15 15 15 15 15 15 15 15 15 15 15 15
21 20 20 20 20 20 20 19 18 20 19 19 19 18 18 18 18 18 18 17 17 17 17 17 16 16 16 16 16 16 16 15 15 15 15 15 15 15 15 15 15 15 15 15 15 15 15 15 15
20 19 18 19 20 20 19 18 18 20 19 19 18 18 18 18 18 18 18 18 17 17 17 16 16 16 16 16 16 16 15 15 15 15 15 15 15 15 15 15 15 15 15 15 15 15 14 14 14
18 18 18 19 20 19 19 17 18 19 19 18 18 18 18 18 18 18 18 17 17 17 17 16 16 16 16 16 16 15 15 15 15 15 15 15 15 15 15 15 15 15 14 14 14 14 14 14 14
18 18 18 18 19 19 18 17 17 19 18 18 18 18 18 18 18 18 18 17 17 17 17 16 16 16 16 15 15 15 15 15 15 15 15 15 15 15 14 14 14 14 14 14 14 14 14 14 14
19 19 18 19 19 19 18 17 17 18 18 17 17 17 18 18 18 17 17 17 17 17 16 16 16 16 16 15 15 15 15 15 14 14 14 14 14 14 14 14 14 14 14 14 14 14 14 14 14
19 18 18 19 19 19 17 17 17 17 17 18 17 17 17 18 17 17 17 17 17 17 16 16 16 16 15 15 15 15 15 14 14 14 14 14 14 14 14 14 14 14 13 13 13 13 13 13 13
19 19 19 18 19 18 18 17 17 17 17 17 17 17 18 18 17 17 17 17 17 16 16 16 16 15 15 15 15 15 14 14 14 14 14 14 14 14 13 13 13 13 13 13 13 13 13 13 12
19 20 20 19 17 16 17 16 16 16 16 16 17 17 17 17 17 17 17 17 17 16 16 16 16 15 15 15 15 14 14 14 14 14 14 13 13 13 13 13 13 13 13 13 13 12 12 12 12
19 20 20 19 17 16 16 16 15 15 15 15 16 16 17 17 17 17 17 17 17 16 16 16 15 15 15 15 14 14 14 14 14 13 13 13 13 13 13 13 13 13 12 12 12 12 12 12 12
20 19 18 16 15 16 16 16 15 14 15 15 16 16 16 17 17 17 17 17 16 16 16 15 15 15 15 14 14 14 14 14 14 13 13 13 13 13 12 12 12 12 12 12 12 12 12 12 12
18 16 16 16 15 15 16 16 15 15 16 16 16 16 16 16 16 16 16 16 16 16 15 15 15 15 15 14 14 14 14 14 13 13 13 13 13 12 12 12 12 12 12 12 12 12 11 11 11
18 16 15 15 15 15 16 15 15 16 16 16 16 16 16 16 16 16 16 16 16 15 15 15 15 15 14 14 14 14 14 13 13 13 13 13 12 12 12 12 12 12 12 11 11 11 11 11 11
18 16 16 15 15 15 15 15 16 16 15 15 15 15 15 15 15 16 16 16 15 15 15 15 15 15 14 14 14 14 13 13 13 13 12 12 12 12 12 12 12 11 11 11 11 11 11 11 11
18 17 14 15 15 14 15 15 15 15 15 14 14 14 14 15 15 15 15 15 15 15 15 15 15 14 14 14 14 13 13 13 13 12 12 12 12 12 12 11 11 11 11 11 11 11 11 11 11
18 17 15 14 14 14 14 15 16 15 14 14 14 14 14 14 15 15 15 15 15 15 15 15 14 14 14 13 13 13 13 13 12 12 12 12 12 11 11 11 11 11 11 11 10 10 10 10 10
17 17 15 15 14 13 13 14 15 14 14 14 14 14 14 15 15 15 14 14 15 14 14 14 14 14 14 13 13 13 13 12 12 12 12 12 11 11 11 11 11 10 10 10 10 10 10 10 10
Wind_Speed
4 2 3 4 6 6 3 1 2 3 4 5 7 8 7 5 4 4 3 4 5 3 3 5 8 9 11 12 12 12 12 13 13 14 14 14 14 13 13 13 12 12 12 13 13 12 12 11 11
2 1 4 5 5 5 2 1 4 3 4 4 6 7 7 6 4 4 1 3 6 5 4 6 9 10 11 12 13 13 13 13 14 14 14 14 14 13 13 13 12 12 13 13 12 12 11 11 11
1 1 4 5 4 4 3 2 5 4 4 4 4 6 5 3 3 2 3 6 7 5 6 7 10 10 11 12 12 12 13 13 14 13 14 14 14 14 14 14 13 13 14 13 13 12 12 11 12
3 5 5 6 6 2 5 4 6 6 5 5 5 6 4 2 2 4 6 8 7 5 6 8 10 10 11 11 12 12 12 13 13 13 14 14 14 14 14 14 14 14 14 13 13 12 12 12 12
4 5 6 5 4 2 4 5 5 6 4 5 7 6 3 3 4 6 7 7 7 5 6 8 9 10 10 10 11 11 12 12 13 13 13 14 14 14 14 13 13 13 13 12 12 12 12 11 11
4 5 5 4 3 3 2 3 6 7 6 6 6 6 2 1 4 5 6 6 7 6 6 7 9 9 9 9 10 11 12 12 12 12 13 13 13 13 13 13 13 12 12 12 11 11 11 10 11
5 5 4 5 4 2 2 3 5 6 5 4 5 5 2 1 3 5 6 6 6 7 6 6 7 7 8 9 10 11 11 11 12 12 12 12 12 12 12 12 12 12 12 12 11 11 10 10 11
5 5 4 3 5 2 1 3 4 6 5 4 5 6 4 4 3 5 6 6 6 5 5 4 5 6 7 9 11 11 11 11 11 11 11 11 11 11 11 11 11 11 11 11 12 11 12 12 12
4 5 3 4 5 3 2 4 3 4 6 4 3 5 6 6 7 7 6 6 5 5 4 4 4 4 5 7 9 9 9 9 9 9 10 9 7 7 8 9 10 10 11 11 11 11 11 11 11
5 4 3 4 6 6 4 4 3 4 6 5 6 6 8 7 7 7 7 5 4 3 3 3 3 3 4 6 6 6 6 6 7 7 7 7 6 6 7 8 9 10 10 10 11 11 11 9 8
4 5 4 4 6 7 5 3 3 7 4 6 10 10 9 7 7 7 6 5 5 4 4 3 4 4 5 4 5 5 5 5 5 5 6 6 6 6 6 5 7 8 9 8 9 9 8 7 7
5 3 5 5 5 5 4 3 3 3 5 7 11 11 9 8 7 7 6 5 5 5 4 4 4 4 4 5 4 4 4 4 4 4 6 6 4 4 4 4 5 6 6 6 6 5 7 7 7
5 4 4 5 5 5 6 4 4 3 5 8 10 11 9 8 7 6 7 6 6 5 4 4 5 4 4 4 3 4 4 4 4 4 5 6 4 3 3 3 5 5 5 5 4 4 5 5 5
4 5 4 5 4 3 6 3 4 4 7 8 9 9 8 8 7 7 6 6 6 5 5 4 5 5 5 4 3 4 4 5 6 6 5 6 6 4 3 3 4 4 5 5 5 4 4 4 4
5 5 3 1 3 3 5 1 3 6 8 9 9 8 8 7 7 8 8 7 7 6 5 5 6 5 5 5 4 5 5 6 5 5 6 7 7 6 4 3 3 4 5 6 6 5 5 4 4
4 4 2 3 3 3 6 3 5 6 8 7 8 8 7 6 7 7 7 7 7 6 6 5 6 6 5 5 5 5 5 6 5 6 6 7 7 6 5 4 3 5 6 5 4 4 4 4 4
2 2 3 3 3 3 4 4 5 5 7 7 6 7 7 6 5 6 7 7 8 7 6 5 6 6 5 5 5 5 5 5 5 6 6 6 7 7 6 4 3 5 5 4 4 4 3 3 3
3 3 3 3 2 5 4 4 4 6 7 7 6 6 7 7 7 6 7 7 7 6 6 6 6 6 5 5 4 4 4 4 5 5 5 6 6 7 6 4 4 5 4 4 3 3 3 2 2
5 3 2 3 3 5 5 5 6 5 5 6 6 6 7 7 6 6 7 7 7 6 6 6 6 5 5 3 3 3 2 2 2 3 5 5 6 6 5 4 3 4 3 3 3 3 3 3 3
3 3 2 1 2 3 4 5 6 5 7 8 9 8 8 6 6 6 6 7 7 7 6 6 6 5 5 3 3 2 2 1 1 2 4 5 5 5 5 4 3 3 3 4 4 3 3 2 3
3 4 4 3 0 1 1 3 3 3 4 4 6 7 7 9 10 9 8 7 7 7 7 7 6 5 4 4 4 3 3 2 2 2 2 3 3 4 4 4 3 3 3 2 2 3 3 2 2
4 4 4 4 3 3 2 3 5 3 3 5 5 5 7 7 8 8 8 8 8 7 6 6 6 6 5 5 5 5 4 2 1 1 0 2 3 3 3 3 3 2 2 2 1 2 2 2 1
5 4 3 3 3 0 1 2 6 1 3 6 6 6 6 6 8 9 10 9 8 6 6 6 6 5 5 5 6 6 3 2 1 1 1 2 2 3 2 3 2 2 1 1 2 2 2 1 1
2 4 4 4 3 1 4 4 5 3 6 5 6 6 5 5 6 7 7 7 6 5 5 6 7 5 5 5 5 6 5 4 3 1 1 1 1 2 2 2 2 1 1 1 1 1 1 1 1
5 6 3 4 2 4 3 3 5 4 4 5 6 6 5 5 6 6 7 6 7 7 6 6 7 5 5 5 5 5 5 4 4 3 2 1 0 1 1 1 1 1 0 0 1 1 1 1 1
3 7 5 4 4 4 2 4 4 3 2 2 3 4 5 5 5 6 7 7 7 8 7 7 7 5 5 5 4 4 4 3 3 3 2 2 1 1 1 0 0 0 0 1 1 1 0 1 1
4 4 6 5 1 2 4 3 4 2 3 4 4 4 4 4 4 5 6 7 7 7 7 7 7 6 5 5 5 4 4 4 3 3 2 1 1 1 0 1 1 1 1 1 2 1 1 1 1
5 6 5 4 2 3 4 4 4 3 3 1 3 4 3 4 4 4 5 6 6 7 6 6 6 6 4 4 4 4 3 3 3 3 2 2 1 0 1 1 1 1 2 2 2 1 1 2 1
1 2 3 4 4 4 3 5 4 7 6 6 6 5 5 4 4 4 4 5 5 5 6 6 5 5 4 4 3 3 3 2 3 2 2 2 2 1 1 1 1 1 1 1 2 1 1 1 1
4 5 5 4 4 4 3 6 5 4 5 5 5 5 4 4 4 4 4 4 5 5 5 5 5 5 4 4 4 3 3 3 2 2 1 1 1 1 1 1 1 1 1 1 1 1 0 1 0
Wind_Direction
318 347 83 61 56 58 68 44 104 68 52 45 63 77 77 57 82 132 214 175 146 137 91 77 77 74 71 72 73 75 77 79 79 78 78 76 74 73 73 73 76 79 82 83 81 80 82 82 81
335 32 63 57 80 84 53 69 84 84 128 111 69 72 70 64 72 111 176 171 140 124 100 87 83 79 77 75 74 76 79 80 78 77 77 74 72 71 70 72 76 79 82 81 78 77 77 77 76
324 85 77 67 86 130 147 152 116 99 80 71 63 51 65 81 80 119 154 132 123 111 101 94 85 82 81 79 77 77 80 81 80 79 78 75 73 71 71 72 74 78 80 79 76 75 73 73 73
62 50 58 76 91 143 153 159 134 107 60 52 82 60 52 50 111 136 131 117 113 104 95 94 87 83 81 81 80 80 82 83 82 81 79 77 74 73 73 74 76 78 78 78 77 75 73 73 73
67 71 67 75 92 116 131 145 127 106 93 78 87 86 60 19 101 124 121 116 113 106 96 96 90 86 84 84 84 83 84 85 84 82 80 78 75 74 73 75 76 76 76 77 77 75 72 73 75
60 69 87 104 111 104 108 117 103 98 107 103 96 101 90 95 109 127 121 119 119 114 98 97 91 87 87 89 93 91 88 86 84 82 81 79 77 75 74 74 76 75 73 73 74 74 73 72 73
99 91 120 131 117 97 126 115 116 120 113 114 116 105 126 154 155 131 115 115 110 103 95 86 89 86 83 88 99 97 90 85 83 81 81 77 75 75 74 73 74 74 73 72 71 70 70 72 72
120 102 98 115 120 136 156 119 129 120 120 125 114 128 167 200 154 111 105 103 101 99 93 84 78 73 74 88 98 95 90 86 83 80 78 76 72 73 74 71 69 67 69 71 70 66 65 65 65
89 87 132 162 145 157 128 100 89 95 106 96 93 133 159 149 116 102 97 86 90 96 99 89 80 74 75 84 91 90 88 83 80 76 76 74 67 65 69 70 65 62 61 62 64 64 64 61 59
86 119 180 168 151 144 133 123 128 97 95 88 83 99 125 125 119 118 116 111 110 115 117 108 92 78 77 86 83 78 81 75 73 71 69 67 69 64 65 63 59 56 54 54 55 57 58 56 51
106 136 130 120 140 133 132 126 103 120 123 152 146 148 144 133 130 130 129 133 137 141 126 114 103 87 82 82 84 76 73 71 69 66 68 70 67 61 52 47 42 42 45 45 45 45 50 60 64
105 129 141 139 136 128 132 123 87 122 171 162 150 151 146 140 144 144 140 134 126 120 120 119 109 92 87 88 81 77 74 72 68 68 72 77 68 59 50 46 38 41 44 49 48 51 50 55 60
107 132 128 128 116 117 108 111 112 108 128 135 137 140 144 146 147 146 145 134 127 125 122 126 122 111 94 82 74 74 71 75 76 70 67 77 79 72 60 51 47 45 51 57 58 57 59 57 56
137 123 114 117 117 116 116 116 108 156 136 135 141 147 153 154 148 142 138 131 134 132 123 119 119 112 97 90 84 80 77 75 73 66 65 77 83 83 72 58 50 45 49 54 61 63 68 65 66
119 106 78 134 138 149 115 66 186 177 147 148 155 159 160 161 153 151 154 147 145 140 127 119 122 108 103 98 88 84 80 77 68 65 63 71 81 81 77 64 55 48 51 58 62 57 61 55 51
88 91 128 250 183 180 135 199 236 179 152 159 167 168 166 166 161 163 153 142 140 133 128 125 125 115 110 99 90 82 75 72 68 70 66 66 72 77 73 65 55 55 58 61 64 54 52 44 39
59 141 198 249 210 156 143 204 224 184 158 167 178 176 173 173 163 163 154 147 144 140 134 122 120 120 119 103 92 84 75 68 66 64 62 63 67 76 77 70 59 64 62 53 61 60 70 58 42
201 189 207 212 217 139 156 209 209 190 175 181 187 184 179 179 182 168 155 147 142 137 129 121 117 115 115 102 91 75 66 59 57 58 61 64 68 73 76 73 59 64 66 53 56 62 57 60 48
174 169 192 225 191 151 186 217 224 208 188 186 191 189 191 190 186 160 151 143 136 133 129 127 124 121 118 113 113 104 91 69 52 53 62 67 66 69 72 68 61 63 71 73 78 70 61 45 47
168 166 211 278 212 169 199 239 236 210 205 198 193 193 190 186 169 157 149 144 147 148 146 139 139 139 133 137 141 136 134 120 88 49 52 62 67 67 76 74 73 71 74 68 69 75 71 48 44
204 181 187 199 206 53 107 307 269 246 226 209 195 188 188 184 180 171 160 155 151 152 159 157 154 147 136 125 109 91 73 52 43 36 26 32 62 70 74 83 82 77 83 90 82 89 92 73 9
219 202 182 175 141 246 169 256 283 251 237 223 216 195 190 187 175 168 164 162 164 165 160 156 153 147 140 133 129 129 128 132 182 179 44 28 50 64 75 87 87 85 83 93 82 82 92 110 64
215 211 187 190 166 262 262 192 285 276 245 239 218 198 189 182 175 169 167 167 165 160 156 158 147 141 143 140 141 137 131 143 141 97 64 30 25 38 58 91 94 88 82 76 68 67 76 98 116
153 66 51 54 85 267 232 183 273 247 231 227 212 191 177 171 161 159 161 154 148 145 142 150 150 150 153 146 145 146 148 147 135 120 91 25 360 5 22 60 85 93 90 75 84 81 90 78 84
85 85 40 359 7 253 236 180 247 267 247 203 192 189 171 156 151 147 150 154 154 151 150 148 150 156 158 151 154 162 161 161 166 173 172 158 283 330 327 23 54 56 10 69 87 92 73 83 94
159 137 158 200 228 277 309 219 253 287 286 155 154 146 139 145 149 156 161 158 161 161 159 152 153 157 155 157 165 168 161 162 173 180 174 185 202 232 275 38 350 342 43 59 80 93 51 65 77
148 178 178 154 211 256 274 275 299 12 40 75 108 114 144 150 151 158 160 156 158 161 163 159 159 161 163 159 153 157 159 164 173 180 175 185 222 225 76 73 58 32 58 80 94 104 88 82 78
159 159 109 133 179 253 277 253 239 232 225 165 149 156 165 158 153 157 156 162 162 164 163 156 157 161 161 153 154 154 156 160 171 165 174 188 208 153 115 89 87 75 62 68 89 94 82 90 53
153 142 131 141 163 172 253 269 233 202 198 194 190 181 173 166 162 159 158 156 154 153 152 156 156 148 149 151 147 139 148 153 150 155 180 191 187 168 150 163 147 131 112 98 101 101 87 87 17
162 174 149 165 230 188 196 265 287 207 200 194 192 181 178 170 161 153 151 143 140 151 156 157 157 156 160 158 146 149 149 140 131 143 160 144 137 159 155 147 138 146 140 144 140 150 92 108 328
Height
1505 1505 1504 1505 1509 1522 1527 1523 1518 1516 1516 1516 1515 1515 1518 1521 1524 1530 1525 1522 1522 1522 1522 1522 1521 1520 1519 1518 1517 1517 1516 1516 1515 1515 1514 1513 1513 1513 1512 1512 1511 1511 1511 1511 1512 1512 1512 1513 1513
1505 1505 1506 1506 1518 1533 1531 1522 1519 1517 1517 1516 1517 1518 1519 1522 1523 1523 1521 1519 1520 1522 1522 1522 1522 1521 1520 1519 1518 1518 1517 1517 1516 1516 1515 1515 1514 1514 1513 1513 1512 1512 1512 1512 1513 1513 1513 1514 1514
1505 1505 1507 1511 1523 1531 1528 1521 1519 1517 1517 1516 1518 1520 1522 1525 1524 1523 1522 1518 1520 1522 1523 1523 1522 1522 1521 1520 1519 1519 1518 1518 1517 1517 1517 1516 1516 1515 1514 1514 1513 1513 1513 1513 1514 1514 1514 1514 1515
1505 1507 1509 1518 1525 1523 1521 1519 1517 1518 1519 1519 1520 1523 1526 1527 1526 1525 1525 1524 1524 1524 1524 1524 1523 1523 1522 1521 1520 1520 1520 1519 1519 1518 1518 1518 1517 1517 1516 1515 1515 1515 1515 1515 1515 1515 1515 1515 1515
1506 1508 1516 1525 1524 1520 1518 1517 1517 1518 1520 1522 1521 1525 1528 1529 1528 1527 1527 1527 1526 1526 1526 1525 1524 1523 1522 1521 1521 1521 1521 1521 1520 1520 1520 1519 1519 1518 1518 1517 1517 1517 1517 1517 1516 1516 1517 1517 1516
1507 1510 1525 1531 1525 1520 1519 1519 1518 1520 1522 1523 1524 1526 1530 1531 1530 1529 1529 1529 1528 1528 1527 1526 1525 1523 1521 1519 1519 1521 1522 1522 1522 1522 1521 1521 1520 1520 1520 1519 1519 1519 1519 1518 1518 1518 1518 1518 1518
1508 1515 1524 1527 1526 1523 1520 1519 1519 1521 1522 1524 1525 1527 1530 1531 1531 1531 1531 1530 1530 1529 1529 1528 1526 1523 1519 1515 1516 1521 1523 1524 1524 1523 1523 1523 1522 1522 1521 1521 1521 1521 1520 1520 1520 1520 1520 1519 1519
1508 1515 1523 1525 1526 1525 1520 1520 1520 1521 1523 1525 1525 1527 1530 1532 1532 1532 1532 1532 1531 1531 1530 1529 1528 1525 1521 1518 1519 1523 1525 1525 1525 1525 1525 1524 1524 1524 1523 1523 1523 1522 1522 1522 1522 1522 1521 1521 1521
1508 1519 1527 1524 1524 1523 1520 1520 1522 1522 1523 1524 1525 1527 1529 1531 1532 1533 1533 1533 1533 1532 1532 1531 1530 1528 1526 1525 1525 1526 1527 1527 1527 1527 1527 1526 1526 1525 1525 1525 1525 1524 1524 1523 1523 1523 1523 1523 1522
1509 1521 1520 1517 1518 1520 1521 1521 1522 1524 1524 1526 1527 1528 1530 1531 1532 1533 1533 1533 1533 1533 1533 1532 1532 1531 1530 1529 1529 1529 1529 1529 1529 1529 1528 1528 1528 1527 1527 1527 1526 1526 1525 1525 1525 1524 1524 1524 1524
1510 1516 1515 1516 1517 1518 1520 1521 1522 1523 1526 1525 1526 1528 1530 1531 1532 1533 1533 1534 1534 1534 1534 1534 1534 1533 1532 1532 1532 1531 1531 1531 1531 1530 1530 1530 1529 1529 1529 1528 1527 1527 1527 1526 1526 1525 1525 1525 1525
1511 1513 1514 1517 1517 1518 1520 1521 1523 1523 1525 1525 1526 1528 1529 1531 1532 1533 1534 1535 1535 1535 1535 1535 1535 1535 1534 1534 1534 1534 1533 1533 1532 1532 1532 1531 1531 1530 1530 1529 1529 1528 1528 1527 1527 1527 1526 1526 1526
1513 1515 1515 1517 1518 1519 1520 1522 1523 1524 1525 1526 1527 1529 1530 1531 1532 1534 1534 1535 1536 1536 1536 1536 1536 1536 1536 1535 1535 1535 1535 1534 1534 1534 1533 1533 1532 1532 1531 1531 1530 1530 1529 1529 1528 1528 1528 1527 1527
1514 1515 1516 1518 1519 1520 1522 1523 1524 1526 1526 1527 1528 1529 1531 1532 1533 1534 1534 1535 1536 1536 1536 1537 1537 1537 1537 1537 1537 1536 1536 1536 1535 1535 1534 1534 1533 1533 1533 1532 1531 1531 1530 1530 1529 1529 1528 1528 1528
1513 1517 1519 1519 1519 1521 1523 1527 1525 1525 1526 1527 1528 1529 1531 1532 1533 1533 1534 1535 1536 1536 1537 1537 1537 1537 1537 1537 1538 1537 1537 1537 1536 1536 1535 1535 1535 1534 1533 1533 1532 1532 1531 1531 1530 1530 1529 1528 1528
1516 1522 1527 1521 1519 1520 1526 1533 1525 1525 1526 1527 1528 1529 1530 1531 1532 1533 1534 1534 1535 1536 1537 1537 1537 1538 1538 1538 1538 1538 1538 1538 1537 1537 1536 1536 1535 1535 1534 1533 1533 1532 1532 1531 1531 1530 1529 1529 1528
1523 1530 1529 1524 1519 1520 1524 1530 1525 1525 1525 1526 1527 1528 1529 1530 1531 1532 1533 1534 1535 1536 1536 1537 1537 1538 1538 1539 1539 1539 1539 1538 1538 1537 1537 1537 1536 1535 1535 1534 1533 1533 1532 1532 1531 1530 1529 1529 1528
1529 1528 1527 1526 1520 1520 1525 1526 1523 1523 1523 1524 1525 1527 1528 1529 1530 1531 1533 1534 1534 1535 1536 1537 1537 1538 1538 1539 1539 1539 1539 1539 1538 1538 1537 1537 1536 1536 1535 1535 1534 1533 1533 1532 1531 1530 1530 1529 1528
1519 1523 1526 1523 1517 1521 1524 1525 1523 1522 1523 1523 1523 1525 1526 1527 1529 1531 1532 1533 1533 1534 1535 1536 1537 1537 1538 1538 1538 1538 1539 1539 1538 1538 1538 1537 1537 1536 1535 1535 1534 1533 1533 1532 1531 1531 1530 1529 1528
1518 1523 1525 1522 1517 1520 1524 1524 1521 1521 1520 1520 1520 1522 1523 1526 1528 1529 1530 1531 1532 1533 1534 1535 1536 1536 1537 1537 1538 1538 1539 1539 1539 1538 1538 1537 1537 1536 1535 1535 1534 1533 1533 1532 1531 1531 1530 1529 1528
1518 1521 1522 1523 1520 1520 1524 1528 1523 1519 1518 1519 1519 1519 1521 1523 1525 1526 1528 1530 1531 1532 1533 1534 1535 1536 1536 1537 1538 1538 1539 1539 1538 1538 1537 1537 1537 1536 1535 1535 1534 1533 1533 1532 1531 1531 1530 1529 1529
1520 1513 1515 1518 1526 1532 1528 1540 1526 1520 1518 1517 1517 1517 1519 1520 1522 1524 1526 1528 1529 1530 1532 1533 1534 1535 1536 1536 1537 1537 1537 1537 1537 1537 1537 1537 1536 1536 1535 1534 1534 1533 1532 1532 1531 1531 1530 1529 1528
1513 1509 1513 1516 1524 1531 1530 1537 1531 1521 1521 1517 1515 1515 1516 1517 1519 1521 1523 1525 1527 1529 1531 1532 1533 1534 1535 1536 1536 1536 1537 1537 1537 1537 1537 1536 1536 1535 1534 1534 1533 1533 1532 1532 1531 1530 1530 1529 1529
1508 1512 1516 1523 1529 1540 1531 1537 1534 1525 1518 1514 1513 1513 1514 1515 1517 1520 1522 1524 1526 1528 1529 1531 1532 1533 1534 1535 1535 1535 1536 1536 1536 1536 1536 1535 1535 1534 1534 1533 1533 1532 1532 1531 1531 1530 1529 1529 1528
1511 1525 1539 1541 1546 1543 1528 1532 1530 1517 1512 1510 1510 1511 1512 1514 1516 1518 1520 1522 1524 1526 1528 1529 1530 1531 1532 1533 1534 1535 1535 1535 1535 1535 1535 1534 1534 1533 1533 1532 1532 1531 1531 1530 1530 1529 1529 1528 1528
1514 1523 1541 1548 1548 1541 1529 1531 1523 1513 1510 1508 1509 1510 1511 1512 1514 1516 1518 1520 1522 1524 1526 1527 1528 1530 1531 1532 1533 1533 1534 1534 1534 1534 1533 1533 1533 1532 1532 1531 1531 1530 1529 1529 1528 1528 1527 1527 1526
1514 1521 1522 1534 1536 1541 1536 1527 1519 1512 1511 1509 1509 1510 1511 1511 1512 1514 1516 1518 1520 1522 1524 1525 1527 1528 1529 1530 1531 1532 1532 1533 1532 1532 1532 1532 1532 1531 1531 1530 1529 1529 1528 1527 1527 1526 1526 1525 1525
1507 1513 1526 1533 1542 1546 1537 1530 1526 1516 1513 1511 1510 1510 1510 1511 1511 1512 1514 1516 1518 1520 1522 1524 1525 1527 1528 1529 1530 1530 1531 1531 1531 1531 1531 1530 1530 1530 1529 1529 1528 1527 1527 1526 1525 1525 1524 1524 1523
1511 1514 1520 1530 1534 1543 1543 1533 1512 1511 1510 1509 1509 1509 1509 1510 1510 1511 1512 1514 1516 1518 1520 1522 1523 1525 1526 1527 1528 1528 1529 1529 1530 1529 1529 1529 1529 1528 1528 1527 1527 1526 1525 1525 1524 1523 1523 1522 1521
1506 1510 1518 1530 1532 1533 1538 1532 1507 1506 1506 1507 1507 1508 1509 1509 1509 1510 1511 1513 1514 1516 1518 1519 1521 1522 1523 1525 1526 1526 1527 1527 1528 1528 1527 1527 1527 1526 1526 1525 1525 1524 1524 1523 1522 1522 1521 1520 1519